| time (UTC) | temp F | wind direction | speed MPH | gust MPH | rain 1hr in | rain 24hr in | rain mn in | humidity % | barometer mb |
| 20260510180304 | 65 | 303 | 2.0 | 3.0 | 0.00 | 0.00 | 0.00 | 38 | 1013.7 |
| 20260510175804 | 65 | 342 | 0.0 | 2.0 | 0.00 | 0.00 | 0.00 | 38 | 1013.8 |
| 20260510175306 | 65 | 342 | 1.0 | 2.0 | 0.00 | 0.00 | 0.00 | 38 | 1013.9 |
| 20260510174804 | 65 | 335 | 1.0 | 2.0 | 0.00 | 0.00 | 0.00 | 39 | 1014.1 |
| 20260510173304 | 64 | 314 | 1.0 | 2.0 | 0.00 | 0.00 | 0.00 | 39 | 1013.9 |
| 20260510172804 | 64 | 330 | 1.0 | 3.0 | 0.00 | 0.00 | 0.00 | 39 | 1014.0 |
| 20260510172306 | 64 | 315 | 1.0 | 5.0 | 0.00 | 0.00 | 0.00 | 39 | 1014.1 |
| 20260510171804 | 64 | 316 | 2.0 | 3.0 | 0.00 | 0.00 | 0.00 | 38 | 1014.0 |
| 20260510171304 | 64 | 322 | 2.0 | 3.0 | 0.00 | 0.00 | 0.00 | 40 | 1014.0 |
| 20260510170804 | 64 | 333 | 1.0 | 2.0 | 0.00 | 0.00 | 0.00 | 40 | 1014.1 |
| 20260510165804 | 63 | 304 | 2.0 | 3.0 | 0.00 | 0.00 | 0.00 | 40 | 1014.2 |
| 20260510164304 | 63 | 344 | 0.0 | 2.0 | 0.00 | 0.00 | 0.00 | 42 | 1014.4 |
| 20260510163804 | 63 | 321 | 1.0 | 2.0 | 0.00 | 0.00 | 0.00 | 41 | 1014.3 |
| 20260510163304 | 62 | 326 | 1.0 | 3.0 | 0.00 | 0.00 | 0.00 | 41 | 1014.5 |
| 20260510162804 | 62 | 329 | 1.0 | 2.0 | 0.00 | 0.00 | 0.00 | 42 | 1014.1 |
| 20260510162306 | 62 | 308 | 2.0 | 5.0 | 0.00 | 0.00 | 0.00 | 42 | 1014.4 |
| 20260510161304 | 61 | 321 | 2.0 | 3.0 | 0.00 | 0.00 | 0.00 | 44 | 1014.6 |
| 20260510160804 | 61 | 351 | 0.0 | 1.0 | 0.00 | 0.00 | 0.00 | 42 | 1014.4 |
| 20260510160304 | 60 | 7 | 0.0 | 2.0 | 0.00 | 0.00 | 0.00 | 42 | 1014.6 |
| 20260510155804 | 60 | 41 | 1.0 | 1.0 | 0.00 | 0.00 | 0.00 | 41 | 1014.6 |
| 20260510155306 | 60 | 76 | 0.0 | 1.0 | 0.00 | 0.00 | 0.00 | 42 | 1014.3 |
| 20260510154804 | 60 | 49 | 0.0 | 3.0 | 0.00 | 0.00 | 0.00 | 42 | 1014.4 |
| 20260510154304 | 60 | 346 | 1.0 | 3.0 | 0.00 | 0.00 | 0.00 | 42 | 1014.4 |
| 20260510153804 | 60 | 352 | 0.0 | 1.0 | 0.00 | 0.00 | 0.00 | 43 | 1014.5 |
| 20260510153304 | 60 | 318 | 1.0 | 3.0 | 0.00 | 0.00 | 0.00 | 43 | 1014.8 |
| 20260510152804 | 60 | 329 | 1.0 | 2.0 | 0.00 | 0.00 | 0.00 | 44 | 1014.8 |
| 20260510152307 | 59 | 314 | 1.0 | 2.0 | 0.00 | 0.00 | 0.00 | 44 | 1014.6 |
| 20260510150804 | 56 | 4 | 1.0 | 3.0 | 0.00 | 0.00 | 0.00 | 50 | 1014.4 |
| 20260510145803 | 55 | 315 | 1.0 | 1.0 | 0.00 | 0.00 | 0.00 | 53 | 1014.6 |
| 20260510145306 | 54 | 341 | 0.0 | 0.0 | 0.00 | 0.00 | 0.00 | 53 | 1014.7 |
| 20260510144804 | 54 | 353 | 0.0 | 1.0 | 0.00 | 0.00 | 0.00 | 56 | 1014.6 |
| 20260510143804 | 53 | 330 | 0.0 | 1.0 | 0.00 | 0.00 | 0.00 | 57 | 1014.7 |
| 20260510143304 | 52 | 323 | 0.0 | 1.0 | 0.00 | 0.00 | 0.00 | 55 | 1014.7 |
| 20260510142804 | 52 | 27 | 0.0 | 0.0 | 0.00 | 0.00 | 0.00 | 55 | 1014.5 |
| 20260510142306 | 52 | 27 | 0.0 | 0.0 | 0.00 | 0.00 | 0.00 | 57 | 1014.6 |
| 20260510140804 | 51 | 106 | 1.0 | 1.0 | 0.00 | 0.00 | 0.00 | 56 | 1014.6 |
| 20260510140304 | 50 | 116 | 0.0 | 1.0 | 0.00 | 0.00 | 0.00 | 55 | 1014.6 |
| 20260510135804 | 50 | 307 | 0.0 | 0.0 | 0.00 | 0.00 | 0.00 | 56 | 1014.8 |
| 20260510135306 | 50 | 307 | 0.0 | 1.0 | 0.00 | 0.00 | 0.00 | 58 | 1014.6 |
| 20260510134804 | 49 | 301 | 1.0 | 2.0 | 0.00 | 0.00 | 0.00 | 59 | 1014.9 |
| 20260510134305 | 49 | 308 | 0.0 | 1.0 | 0.00 | 0.00 | 0.00 | 59 | 1014.8 |
| 20260510132803 | 48 | 58 | 0.0 | 0.0 | 0.00 | 0.00 | 0.00 | 61 | 1014.8 |
| 20260510132306 | 48 | 344 | 0.0 | 1.0 | 0.00 | 0.00 | 0.00 | 63 | 1014.9 |
| 20260510131804 | 48 | 334 | 0.0 | 0.0 | 0.00 | 0.00 | 0.00 | 63 | 1014.8 |
| 20260510130804 | 47 | 107 | 0.0 | 3.0 | 0.00 | 0.00 | 0.00 | 63 | 1015.0 |
| 20260510125804 | 47 | 318 | 0.0 | 0.0 | 0.00 | 0.00 | 0.00 | 64 | 1015.0 |
| 20260510125307 | 47 | 13 | 0.0 | 0.0 | 0.00 | 0.00 | 0.00 | 64 | 1015.0 |
| 20260510124804 | 47 | 7 | 0.0 | 0.0 | 0.00 | 0.00 | 0.00 | 64 | 1015.2 |
| 20260510124304 | 47 | 339 | 0.0 | 0.0 | 0.00 | 0.00 | 0.00 | 64 | 1015.3 |
| 20260510123804 | 46 | 310 | 0.0 | 0.0 | 0.00 | 0.00 | 0.00 | 64 | 1015.2 |
| 20260510123304 | 46 | 7 | 0.0 | 0.0 | 0.00 | 0.00 | 0.00 | 64 | 1015.0 |
| 20260510122804 | 46 | 7 | 0.0 | 0.0 | 0.00 | 0.00 | 0.00 | 64 | 1015.0 |
| 20260510122306 | 46 | 7 | 0.0 | 0.0 | 0.00 | 0.00 | 0.00 | 64 | 1014.9 |
| 20260510121803 | 46 | 7 | 0.0 | 0.0 | 0.00 | 0.00 | 0.00 | 64 | 1015.0 |
| 20260510121304 | 46 | 7 | 0.0 | 0.0 | 0.00 | 0.00 | 0.00 | 64 | 1015.0 |
| 20260510120804 | 46 | 3 | 1.0 | 1.0 | 0.00 | 0.00 | 0.00 | 62 | 1014.9 |
| 20260510120304 | 46 | 344 | 0.0 | 0.0 | 0.00 | 0.00 | 0.00 | 62 | 1014.9 |
| 20260510115804 | 46 | 342 | 0.0 | 1.0 | 0.00 | 0.00 | 0.00 | 62 | 1015.2 |
| 20260510115306 | 46 | 327 | 0.0 | 1.0 | 0.00 | 0.00 | 0.00 | 62 | 1015.2 |
| 20260510114804 | 46 | 327 | 1.0 | 1.0 | 0.00 | 0.00 | 0.00 | 62 | 1015.1 |
| 20260510114304 | 47 | 338 | 0.0 | 1.0 | 0.00 | 0.00 | 0.00 | 62 | 1015.1 |
| 20260510113804 | 47 | 338 | 0.0 | 1.0 | 0.00 | 0.00 | 0.00 | 62 | 1015.0 |
| 20260510113303 | 47 | 329 | 0.0 | 1.0 | 0.00 | 0.00 | 0.00 | 62 | 1015.2 |
| 20260510112804 | 47 | 329 | 0.0 | 1.0 | 0.00 | 0.00 | 0.00 | 62 | 1015.3 |
| 20260510112305 | 47 | 332 | 0.0 | 1.0 | 0.00 | 0.00 | 0.00 | 62 | 1015.2 |
| 20260510111803 | 47 | 330 | 1.0 | 3.0 | 0.00 | 0.00 | 0.00 | 63 | 1015.3 |
| 20260510111303 | 47 | 327 | 0.0 | 1.0 | 0.00 | 0.00 | 0.00 | 63 | 1015.3 |
| 20260510110304 | 47 | 336 | 0.0 | 1.0 | 0.00 | 0.00 | 0.00 | 63 | 1015.6 |
| 20260510105804 | 47 | 314 | 0.0 | 1.0 | 0.00 | 0.00 | 0.00 | 63 | 1015.4 |
| 20260510104803 | 47 | 328 | 0.0 | 0.0 | 0.00 | 0.00 | 0.00 | 63 | 1015.6 |
| 20260510104303 | 47 | 328 | 0.0 | 1.0 | 0.00 | 0.00 | 0.00 | 63 | 1015.6 |
| 20260510103804 | 47 | 327 | 0.0 | 1.0 | 0.00 | 0.00 | 0.00 | 62 | 1015.5 |
| 20260510103304 | 47 | 312 | 0.0 | 2.0 | 0.00 | 0.00 | 0.00 | 63 | 1015.4 |
| 20260510102804 | 47 | 319 | 1.0 | 2.0 | 0.00 | 0.00 | 0.00 | 63 | 1015.5 |
| 20260510102306 | 47 | 321 | 0.0 | 1.0 | 0.00 | 0.00 | 0.00 | 63 | 1015.6 |
| 20260510101804 | 47 | 319 | 0.0 | 1.0 | 0.00 | 0.00 | 0.00 | 62 | 1015.7 |
| 20260510101304 | 47 | 305 | 0.0 | 1.0 | 0.00 | 0.00 | 0.00 | 62 | 1015.8 |
| 20260510100804 | 47 | 303 | 0.0 | 1.0 | 0.00 | 0.00 | 0.00 | 62 | 1015.8 |
| 20260510100304 | 47 | 328 | 0.0 | 0.0 | 0.00 | 0.00 | 0.00 | 62 | 1015.7 |
| 20260510095305 | 47 | 328 | 0.0 | 1.0 | 0.00 | 0.00 | 0.00 | 61 | 1015.7 |
| 20260510094804 | 47 | 324 | 0.0 | 1.0 | 0.00 | 0.00 | 0.00 | 62 | 1015.8 |
| 20260510094303 | 47 | 328 | 0.0 | 1.0 | 0.00 | 0.00 | 0.00 | 62 | 1015.8 |
| 20260510093804 | 47 | 327 | 0.0 | 1.0 | 0.00 | 0.00 | 0.00 | 61 | 1016.0 |
| 20260510093304 | 48 | 285 | 1.0 | 2.0 | 0.00 | 0.00 | 0.00 | 61 | 1015.8 |
| 20260510092804 | 48 | 326 | 0.0 | 1.0 | 0.00 | 0.00 | 0.00 | 61 | 1015.9 |
| 20260510091304 | 48 | 300 | 1.0 | 3.0 | 0.00 | 0.00 | 0.00 | 61 | 1016.0 |
| 20260510090804 | 48 | 289 | 1.0 | 3.0 | 0.00 | 0.00 | 0.00 | 62 | 1016.0 |
| 20260510090304 | 48 | 280 | 2.0 | 3.0 | 0.00 | 0.00 | 0.00 | 62 | 1016.0 |
| 20260510085803 | 48 | 292 | 1.0 | 3.0 | 0.00 | 0.00 | 0.00 | 62 | 1016.2 |
| 20260510085306 | 48 | 285 | 1.0 | 3.0 | 0.00 | 0.00 | 0.00 | 62 | 1016.2 |
| 20260510084804 | 48 | 283 | 2.0 | 6.0 | 0.00 | 0.00 | 0.00 | 62 | 1016.3 |
| 20260510084304 | 48 | 285 | 2.0 | 5.0 | 0.00 | 0.00 | 0.00 | 62 | 1016.4 |
| 20260510083804 | 48 | 287 | 2.0 | 5.0 | 0.00 | 0.00 | 0.00 | 61 | 1016.3 |
| 20260510083303 | 48 | 294 | 1.0 | 2.0 | 0.00 | 0.00 | 0.00 | 61 | 1016.3 |
| 20260510082803 | 48 | 286 | 2.0 | 2.0 | 0.00 | 0.00 | 0.00 | 61 | 1016.5 |
| 20260510082306 | 49 | 281 | 2.0 | 3.0 | 0.00 | 0.00 | 0.00 | 60 | 1016.4 |
| 20260510081304 | 49 | 287 | 2.0 | 5.0 | 0.00 | 0.00 | 0.00 | 60 | 1016.4 |
| 20260510080804 | 49 | 278 | 2.0 | 3.0 | 0.00 | 0.00 | 0.00 | 59 | 1016.5 |
| 20260510080303 | 49 | 278 | 1.0 | 2.0 | 0.00 | 0.00 | 0.00 | 59 | 1016.6 |
| 20260510075803 | 49 | 288 | 1.0 | 2.0 | 0.00 | 0.00 | 0.00 | 58 | 1016.3 |
| 20260510075306 | 49 | 276 | 1.0 | 1.0 | 0.00 | 0.00 | 0.00 | 57 | 1016.6 |
| 20260510074804 | 49 | 289 | 0.0 | 2.0 | 0.00 | 0.00 | 0.00 | 57 | 1016.3 |
| 20260510074304 | 50 | 304 | 1.0 | 5.0 | 0.00 | 0.00 | 0.00 | 58 | 1016.7 |
| 20260510073804 | 50 | 274 | 2.0 | 5.0 | 0.00 | 0.00 | 0.00 | 57 | 1016.8 |
| 20260510073304 | 50 | 295 | 1.0 | 3.0 | 0.00 | 0.00 | 0.00 | 57 | 1016.9 |
| 20260510072804 | 50 | 286 | 1.0 | 3.0 | 0.00 | 0.00 | 0.00 | 57 | 1016.7 |
| 20260510071304 | 50 | 285 | 2.0 | 3.0 | 0.00 | 0.00 | 0.00 | 56 | 1016.8 |
| 20260510070804 | 50 | 284 | 2.0 | 5.0 | 0.00 | 0.00 | 0.00 | 56 | 1016.9 |
| 20260510065804 | 51 | 287 | 2.0 | 5.0 | 0.00 | 0.00 | 0.00 | 55 | 1016.9 |
| 20260510064804 | 51 | 343 | 0.0 | 2.0 | 0.00 | 0.00 | 0.00 | 55 | 1016.9 |
| 20260510063804 | 51 | 285 | 2.0 | 3.0 | 0.00 | 0.00 | 0.00 | 55 | 1016.9 |
| 20260510063304 | 51 | 292 | 2.0 | 5.0 | 0.00 | 0.00 | 0.00 | 55 | 1016.8 |
| 20260510062804 | 51 | 288 | 2.0 | 5.0 | 0.00 | 0.00 | 0.00 | 55 | 1017.0 |
| 20260510062306 | 51 | 292 | 1.0 | 2.0 | 0.00 | 0.00 | 0.00 | 55 | 1017.1 |
| 20260510061804 | 51 | 289 | 1.0 | 5.0 | 0.00 | 0.00 | 0.00 | 55 | 1017.1 |
| 20260510061304 | 52 | 294 | 0.0 | 2.0 | 0.00 | 0.00 | 0.00 | 55 | 1017.3 |
| 20260510060804 | 52 | 283 | 1.0 | 1.0 | 0.00 | 0.00 | 0.00 | 55 | 1017.1 |
| 20260510060305 | 52 | 297 | 1.0 | 2.0 | 0.00 | 0.00 | 0.00 | 55 | 1017.1 |
| 20260510055804 | 52 | 269 | 1.0 | 2.0 | 0.00 | 0.00 | 0.00 | 55 | 1017.2 |
| 20260510055306 | 52 | 277 | 0.0 | 2.0 | 0.00 | 0.00 | 0.00 | 55 | 1017.2 |
| 20260510054804 | 52 | 250 | 0.0 | 2.0 | 0.00 | 0.00 | 0.00 | 54 | 1017.2 |
| 20260510053803 | 52 | 336 | 0.0 | 0.0 | 0.00 | 0.00 | 0.00 | 53 | 1017.3 |
| 20260510053304 | 53 | 334 | 0.0 | 1.0 | 0.00 | 0.00 | 0.00 | 52 | 1017.4 |
| 20260510052804 | 53 | 325 | 0.0 | 1.0 | 0.00 | 0.00 | 0.00 | 51 | 1017.3 |
| 20260510052306 | 53 | 322 | 0.0 | 1.0 | 0.00 | 0.00 | 0.00 | 51 | 1017.2 |
| 20260510051803 | 54 | 272 | 1.0 | 2.0 | 0.00 | 0.00 | 0.00 | 51 | 1017.3 |
| 20260510051303 | 54 | 289 | 1.0 | 3.0 | 0.00 | 0.00 | 0.00 | 51 | 1017.5 |
| 20260510050803 | 53 | 287 | 1.0 | 5.0 | 0.00 | 0.00 | 0.00 | 51 | 1017.4 |
| 20260510050304 | 53 | 285 | 2.0 | 5.0 | 0.00 | 0.00 | 0.00 | 52 | 1017.4 |
| 20260510045804 | 53 | 277 | 1.0 | 3.0 | 0.00 | 0.00 | 0.00 | 51 | 1017.4 |
| 20260510045306 | 54 | 302 | 0.0 | 1.0 | 0.00 | 0.00 | 0.00 | 51 | 1017.2 |
| 20260510044805 | 54 | 303 | 1.0 | 2.0 | 0.00 | 0.00 | 0.00 | 52 | 1017.3 |
| 20260510044303 | 54 | 276 | 1.0 | 2.0 | 0.00 | 0.00 | 0.00 | 52 | 1017.3 |
| 20260510043803 | 54 | 280 | 1.0 | 2.0 | 0.00 | 0.00 | 0.00 | 51 | 1017.6 |
| 20260510043305 | 54 | 286 | 0.0 | 1.0 | 0.00 | 0.00 | 0.00 | 50 | 1017.4 |
| 20260510042805 | 54 | 307 | 0.0 | 1.0 | 0.00 | 0.00 | 0.00 | 50 | 1017.5 |
| 20260510042306 | 55 | 286 | 1.0 | 2.0 | 0.00 | 0.00 | 0.00 | 49 | 1017.3 |
| 20260510040804 | 56 | 330 | 0.0 | 1.0 | 0.00 | 0.00 | 0.00 | 47 | 1017.3 |
| 20260510040304 | 56 | 294 | 0.0 | 1.0 | 0.00 | 0.00 | 0.00 | 47 | 1017.2 |
| 20260510035803 | 57 | 287 | 0.0 | 2.0 | 0.00 | 0.00 | 0.00 | 47 | 1017.0 |
| 20260510035306 | 57 | 303 | 0.0 | 1.0 | 0.00 | 0.00 | 0.00 | 46 | 1017.3 |
| 20260510034804 | 57 | 266 | 0.0 | 1.0 | 0.00 | 0.00 | 0.00 | 45 | 1017.0 |
| 20260510034304 | 58 | 286 | 0.0 | 1.0 | 0.00 | 0.00 | 0.00 | 45 | 1017.1 |
| 20260510033804 | 58 | 234 | 0.0 | 3.0 | 0.00 | 0.00 | 0.00 | 45 | 1017.3 |
| 20260510033303 | 58 | 253 | 1.0 | 3.0 | 0.00 | 0.00 | 0.00 | 45 | 1017.2 |
| 20260510032803 | 59 | 286 | 1.0 | 3.0 | 0.00 | 0.00 | 0.00 | 44 | 1017.2 |
| 20260510032306 | 59 | 258 | 0.0 | 2.0 | 0.00 | 0.00 | 0.00 | 44 | 1017.2 |
| 20260510031804 | 59 | 257 | 1.0 | 3.0 | 0.00 | 0.00 | 0.00 | 44 | 1017.2 |
| 20260510025804 | 60 | 292 | 0.0 | 3.0 | 0.00 | 0.00 | 0.00 | 42 | 1016.9 |
| 20260510024804 | 61 | 261 | 0.0 | 2.0 | 0.00 | 0.00 | 0.00 | 42 | 1016.8 |
| 20260510024303 | 61 | 243 | 1.0 | 2.0 | 0.00 | 0.00 | 0.00 | 41 | 1016.9 |
| 20260510023804 | 61 | 226 | 1.0 | 5.0 | 0.00 | 0.00 | 0.00 | 41 | 1016.8 |
| 20260510022804 | 62 | 233 | 1.0 | 5.0 | 0.00 | 0.00 | 0.00 | 40 | 1017.0 |
| 20260510022306 | 62 | 271 | 2.0 | 6.0 | 0.00 | 0.00 | 0.00 | 39 | 1016.8 |
| 20260510021804 | 62 | 250 | 1.0 | 5.0 | 0.00 | 0.00 | 0.00 | 39 | 1016.7 |
| 20260510021304 | 62 | 228 | 2.0 | 5.0 | 0.00 | 0.00 | 0.00 | 39 | 1016.9 |
| 20260510020804 | 63 | 224 | 2.0 | 6.0 | 0.00 | 0.00 | 0.00 | 39 | 1016.8 |
| 20260510020304 | 63 | 211 | 2.0 | 6.0 | 0.00 | 0.00 | 0.00 | 39 | 1016.9 |
| 20260510015804 | 63 | 258 | 1.0 | 3.0 | 0.00 | 0.00 | 0.00 | 39 | 1016.9 |
| 20260510015306 | 63 | 277 | 2.0 | 5.0 | 0.00 | 0.00 | 0.00 | 39 | 1016.9 |
| 20260510014804 | 63 | 182 | 2.0 | 3.0 | 0.00 | 0.00 | 0.00 | 38 | 1016.9 |
| 20260510014304 | 63 | 288 | 2.0 | 7.0 | 0.00 | 0.00 | 0.00 | 38 | 1016.8 |
| 20260510013804 | 63 | 283 | 2.0 | 5.0 | 0.00 | 0.00 | 0.00 | 38 | 1016.8 |
| 20260510012804 | 63 | 201 | 1.0 | 2.0 | 0.00 | 0.00 | 0.00 | 37 | 1017.0 |
| 20260510012306 | 63 | 184 | 1.0 | 2.0 | 0.00 | 0.00 | 0.00 | 37 | 1016.8 |
| 20260510011804 | 63 | 240 | 1.0 | 3.0 | 0.00 | 0.00 | 0.00 | 37 | 1016.8 |
| 20260510011304 | 63 | 303 | 0.0 | 3.0 | 0.00 | 0.00 | 0.00 | 38 | 1017.0 |
| 20260510010804 | 63 | 274 | 3.0 | 5.0 | 0.00 | 0.00 | 0.00 | 37 | 1017.1 |
| 20260510010304 | 63 | 272 | 2.0 | 5.0 | 0.00 | 0.00 | 0.00 | 38 | 1017.0 |
| 20260510005804 | 63 | 261 | 2.0 | 8.0 | 0.00 | 0.00 | 0.00 | 37 | 1017.0 |
| 20260510005306 | 63 | 283 | 3.0 | 5.0 | 0.00 | 0.00 | 0.00 | 37 | 1016.9 |
| 20260510004804 | 63 | 308 | 1.0 | 3.0 | 0.00 | 0.00 | 0.00 | 37 | 1017.1 |
| 20260510004303 | 63 | 292 | 1.0 | 2.0 | 0.00 | 0.00 | 0.00 | 37 | 1017.2 |
| 20260510002804 | 64 | 141 | 1.0 | 3.0 | 0.00 | 0.00 | 0.00 | 36 | 1017.1 |
| 20260510002306 | 64 | 211 | 1.0 | 3.0 | 0.00 | 0.00 | 0.00 | 36 | 1017.1 |
| 20260510001304 | 64 | 38 | 1.0 | 2.0 | 0.00 | 0.00 | 0.00 | 35 | 1017.0 |
| 20260510000804 | 65 | 271 | 2.0 | 5.0 | 0.00 | 0.00 | 0.00 | 35 | 1017.1 |
| 20260510000304 | 65 | 276 | 2.0 | 6.0 | 0.00 | 0.00 | 0.00 | 35 | 1016.9 |
| 20260509235307 | 65 | 263 | 3.0 | 6.0 | 0.00 | 0.00 | 0.00 | 36 | 1017.1 |
| 20260509234304 | 65 | 329 | 1.0 | 3.0 | 0.00 | 0.00 | 0.00 | 35 | 1016.8 |
| 20260509233304 | 65 | 325 | 1.0 | 3.0 | 0.00 | 0.00 | 0.00 | 36 | 1017.0 |
| 20260509232306 | 65 | 295 | 2.0 | 3.0 | 0.00 | 0.00 | 0.00 | 35 | 1016.9 |
| 20260509231304 | 65 | 287 | 1.0 | 3.0 | 0.00 | 0.00 | 0.00 | 35 | 1017.1 |
| 20260509225306 | 65 | 349 | 1.0 | 6.0 | 0.00 | 0.00 | 0.00 | 34 | 1017.3 |
| 20260509224803 | 65 | 288 | 1.0 | 3.0 | 0.00 | 0.00 | 0.00 | 34 | 1017.5 |
| 20260509224304 | 65 | 282 | 5.0 | 9.0 | 0.00 | 0.00 | 0.00 | 35 | 1017.4 |
| 20260509223804 | 65 | 257 | 4.0 | 8.0 | 0.00 | 0.00 | 0.00 | 36 | 1017.4 |
| 20260509223303 | 64 | 230 | 2.0 | 6.0 | 0.00 | 0.00 | 0.00 | 35 | 1017.4 |
| 20260509222306 | 64 | 285 | 1.0 | 5.0 | 0.00 | 0.00 | 0.00 | 35 | 1017.5 |
| 20260509220804 | 64 | 161 | 2.0 | 5.0 | 0.00 | 0.00 | 0.00 | 35 | 1017.5 |
| 20260509215803 | 65 | 97 | 1.0 | 5.0 | 0.00 | 0.00 | 0.00 | 34 | 1017.8 |
| 20260509215306 | 66 | 51 | 1.0 | 2.0 | 0.00 | 0.00 | 0.00 | 35 | 1017.6 |
| 20260509214804 | 66 | 38 | 1.0 | 3.0 | 0.00 | 0.00 | 0.00 | 35 | 1017.7 |
| 20260509213804 | 66 | 66 | 2.0 | 5.0 | 0.00 | 0.00 | 0.00 | 36 | 1017.9 |
| 20260509213304 | 65 | 68 | 1.0 | 2.0 | 0.00 | 0.00 | 0.00 | 35 | 1017.8 |
| 20260509212804 | 64 | 18 | 1.0 | 2.0 | 0.00 | 0.00 | 0.00 | 37 | 1017.8 |
| 20260509211804 | 64 | 170 | 1.0 | 6.0 | 0.00 | 0.00 | 0.00 | 34 | 1018.1 |
| 20260509211305 | 65 | 74 | 2.0 | 7.0 | 0.00 | 0.00 | 0.00 | 34 | 1018.0 |
| 20260509210804 | 65 | 34 | 1.0 | 3.0 | 0.00 | 0.00 | 0.00 | 33 | 1017.8 |
| 20260509210304 | 65 | 121 | 2.0 | 12.0 | 0.00 | 0.00 | 0.00 | 34 | 1018.1 |
| 20260509205804 | 66 | 65 | 2.0 | 3.0 | 0.00 | 0.00 | 0.00 | 35 | 1017.8 |
| 20260509205307 | 66 | 348 | 2.0 | 3.0 | 0.00 | 0.00 | 0.00 | 35 | 1017.9 |
| 20260509204804 | 67 | 14 | 3.0 | 7.0 | 0.00 | 0.00 | 0.00 | 34 | 1017.7 |
| 20260509202804 | 67 | 63 | 1.0 | 3.0 | 0.00 | 0.00 | 0.00 | 33 | 1018.0 |
| 20260509202306 | 67 | 281 | 1.0 | 3.0 | 0.00 | 0.00 | 0.00 | 32 | 1017.9 |
| 20260509201804 | 66 | 174 | 3.0 | 6.0 | 0.00 | 0.00 | 0.00 | 35 | 1017.8 |
| 20260509201304 | 65 | 140 | 2.0 | 6.0 | 0.00 | 0.00 | 0.00 | 33 | 1018.0 |
| 20260509200804 | 65 | 325 | 1.0 | 5.0 | 0.00 | 0.00 | 0.00 | 34 | 1017.9 |
| 20260509200304 | 65 | 128 | 1.0 | 3.0 | 0.00 | 0.00 | 0.00 | 34 | 1018.1 |
| 20260509195306 | 66 | 137 | 2.0 | 5.0 | 0.00 | 0.00 | 0.00 | 33 | 1018.0 |
| 20260509194304 | 67 | 337 | 2.0 | 5.0 | 0.00 | 0.00 | 0.00 | 33 | 1017.9 |
| 20260509193804 | 67 | 290 | 2.0 | 5.0 | 0.00 | 0.00 | 0.00 | 33 | 1018.0 |
| 20260509193304 | 66 | 302 | 2.0 | 6.0 | 0.00 | 0.00 | 0.00 | 34 | 1018.2 |
| 20260509192804 | 66 | 152 | 2.0 | 5.0 | 0.00 | 0.00 | 0.00 | 33 | 1018.1 |
| 20260509192306 | 66 | 100 | 2.0 | 5.0 | 0.00 | 0.00 | 0.00 | 35 | 1018.2 |
| 20260509191804 | 65 | 93 | 3.0 | 6.0 | 0.00 | 0.00 | 0.00 | 35 | 1018.3 |
| 20260509191304 | 65 | 119 | 2.0 | 8.0 | 0.00 | 0.00 | 0.00 | 34 | 1018.2 |
| 20260509190804 | 65 | 312 | 2.0 | 7.0 | 0.00 | 0.00 | 0.00 | 34 | 1018.4 |
| 20260509185804 | 67 | 117 | 2.0 | 5.0 | 0.00 | 0.00 | 0.00 | 36 | 1018.0 |
| 20260509185306 | 67 | 102 | 1.0 | 5.0 | 0.00 | 0.00 | 0.00 | 34 | 1018.1 |
| 20260509184804 | 67 | 51 | 2.0 | 3.0 | 0.00 | 0.00 | 0.00 | 37 | 1018.4 |
| 20260509184304 | 66 | 28 | 1.0 | 2.0 | 0.00 | 0.00 | 0.00 | 36 | 1018.3 |
| 20260509183804 | 66 | 37 | 1.0 | 3.0 | 0.00 | 0.00 | 0.00 | 37 | 1018.3 |
| 20260509183304 | 66 | 30 | 2.0 | 5.0 | 0.00 | 0.00 | 0.00 | 37 | 1018.2 |
| 20260509182804 | 66 | 165 | 1.0 | 3.0 | 0.00 | 0.00 | 0.00 | 35 | 1018.1 |
| 20260509182306 | 66 | 144 | 2.0 | 6.0 | 0.00 | 0.00 | 0.00 | 37 | 1018.3 |
| 20260509181804 | 67 | 325 | 1.0 | 5.0 | 0.00 | 0.00 | 0.00 | 36 | 1018.4 |
| 20260509181304 | 67 | 155 | 1.0 | 5.0 | 0.00 | 0.00 | 0.00 | 36 | 1018.1 |
| 20260509180804 | 68 | 168 | 2.0 | 7.0 | 0.00 | 0.00 | 0.00 | 35 | 1018.4 |